APSTAR 2R (TELSTAR 10)

导读

APSTAR 2R(TELSTAR 10)是一颗由中国于1997年10月16日发射的通信卫星,隶属于亚太卫星系列,同时纳入TELSTAR卫星网络运营。该卫星主要提供跨区域通信服务,覆盖亚洲、大洋洲等区域,支持电视广播传输、语音通信及数据业务,为区域内媒体传输、政企通信提供了重要的空间基础设施,推动了亚太地区卫星通信产业发展,服役期间承担了大量公共与商用通信任务。

Basic Information
目录编号:
25010
目录名称:
APSTAR 2R (TELSTAR 10)
国际标识:
1997-062A
轨道中心:
EARTH
卫星名称:
APSTAR 2R (TELSTAR 10)
卫星全名:
--
卫星状态:
在轨 (已飞行10475 天)
发射日期:
1997-10-16 UTC
国别 :
中国 (CN)
星等 :
--
Orbit Information
数据来源 国际轨道数据 AOE轨道数据
星历时间 2026-06-20T09:26:13+0800
1天前
查看轨道信息
2026-06-20T23:00:00+0800
19小时前
查看轨道信息
半长轴 42464.613km 42464.67km
偏心率 0.0008898 0.0008944
轨道倾角 10.728° 10.729°
近地点辐角 305.759° 306.797°
升交点赤经 47.725° 47.719°
平近点角 59.164° 259.975°
近地点 36048.69km 36048.552km
远地点 36124.262km 36124.514km
周期 1451.445分钟 1451.448分钟
每日圈数 0.992115 0.992113
Detailed Information
使用方式:
暂无
2D Orbit Map
3D Orbit Map
Orbit Altitude Analysis Chart
Orbit Inclination Analysis Chart
Orbit Comprehensive Analysis Chart
View Comprehensive Chart